Погода в Тонгулахе

Погода в Тонгулахе : погода сейчас, прогноз погоды и архив. Всё, что Вы хотите узнать о погоде в Тонгулахе!

Поиск расширенной информации на нашем сайте:

Другие новости

Новости СМИ2

Главная страница сайта

Новости сайта

02.10.2013

Напоминаем, что на нашем новом сайте вы можете получить высокодетализированные прогнозы погоды по пунктам России, СНГ и мира (включающие важные для авиации метеовеличины, такие как направление и скорость ветра, видимость, явления погоды, количество и форма облачности, нижняя и верхняя граница облачности), а также ознакомиться с разнообразными материалами по авиационной метеорологии и подборкой полезных ссылок на эту тему.

Сайт Метеоцентр.Азия посвящён разработке технологий оптимизации авиаметеорологического обслуживания, включая проектирование и перспективное создание нескольких автоматизированных авиаметеорологических систем:
- система выпуска высокодетальных прогностических карт явлений погоды для нижнего воздушного пространства по России и ближнему зарубежью;
- система верификации прогнозов TAF (выпускаемых синоптиками официальных АМСГ РФ и ближнего зарубежья) и AUTOTAF (выпускаемых сайтом Метеоцентр.Азия) - выявление ошибок, онлайн-сопоставление с фактической погодой METAR, автоматическое внесение коррективов в прогнозы при резком отклонении фактической погоды от прогноза, подсчёт оправдываемости прогнозов по элементам и в целом;
- система обработки, анализа и отображения авиаметеорологической информации для применения провайдерами метеорологической информации.

Рекомендуем: Купить ортопедический матрас в калининграде, детские матрасы матрасы-калининграда.рф.

Погода в Тонгулахе - сегодня

Время (UTC), дата Ветер
(°,м/с) 
Видим.   Явления Облачность Т
(°С)
Тd
(°С)
f(%) Тe
(°С)
Pmin
(гПа)
dP
(гПа)
Po
(мм)
O2
(г/м3)
Тmin Tmax R s Состояние
почвы
06 26.05.17 140 (ЮВ) 20000 м  {дождь}  10/0 средняя 
[Ac As]
+12.2 +6.1 66 +13  995.7  -1.6  730  281           
09 26.05.17 140 (ЮВ) 20000 м    8/0 средняя 
[Ac trans]
+17.6 +9.6 59 +19  994.4  -1.7  729  274           
12 26.05.17 тихо ()   20000 м    8/0 средняя 
[As trans]
+9.6 +8.4 92 +10  998.8  3.6  731  283    +17.8     
15 26.05.17 тихо ()   20000 м    ясно 
+3 +0.6 84 +3  1001.8  2.3  733  292           
18 26.05.17 тихо ()   20000 м    ясно 
+1 -0.4 90 +1  1004  735  295           
21 26.05.17 270 (З) 20000 м    ясно 
+6 +1.2 71 +4  1004.5  0.9  735  290           
03 27.05.17 270 (З) 20000 м    4/4 1000 м 
[Cu hum]
+14.1 -0.6 36 +14  1004  -0.3  735  282           
06 27.05.17 270 (З) 20000 м    1/1 1000 м 
[Cu hum]
+16.3 -1.9 29 +16  1002.9  -0.4  735  280           
09 27.05.17 320 (СЗ) 20000 м    9/0 верхняя 
[Ci sp]
+17.7 -2.8 25 +18  1001.7  -1.1  734  278           
15 27.05.17 320 (СЗ) 20000 м    9/0 средняя, верхняя 
[Ac trans|Ci fib]
+11 +1.8 53 +11  1003.2  0.8  735  284           
18 27.05.17 320 (СЗ) 20000 м    8/0 средняя, верхняя 
[Ac trans|Ci fib]
+9.9 +2.7 61 +11  1003.1  -0.2  735  285           
21 27.05.17 тихо ()   20000 м    10/0 средняя 
[Ac As]
+7 +4.7 85 +7  1004.6  1.2  735  288           
03 28.05.17 320 (СЗ) 20000 м    10/0 средняя, верхняя 
[Ac trans|Cs]
+12.9 +4.9 58 +13  1004.3  736  282           
09 28.05.17 320 (СЗ) 20000 м    10/0 средняя 
[Ac As]
+14.8 +3.7 47 +15  1003.2  -0.4  735  280           
15 28.05.17 тихо ()   20000 м    10/0 средняя 
[Ac As]
+9.3 +3.8 68 +9  1004.3  735  286           
18 28.05.17 тихо ()   20000 м    10/0 средняя 
[Ac As]
+7.6 +3.4 75 +8  1004.7  0.2  736  288           
21 28.05.17 360 (С) 20000 м    10/0 средняя 
[Ac As]
+7 +2.4 72 +8  1004  -0.7  735  288           
03 29.05.17 050 (СВ) 20000 м    10/0 средняя 
[As op]
+12.1 +2.8 53 +12  1003.2  -0.2  735  283           
06 29.05.17 340 (С) 20000 м    10/0 средняя 
[Ac As]
+12.8 +3.1 52 +13  1003.2  735  282           
09 29.05.17 020 (С) 20000 м    10/0 средняя 
[As op]
+12.1 +3 54 +12  1004.4  1.2  736  283           
15 29.05.17 тихо ()   20000 м  {дождь}  10/0 средняя 
[As op]
+6.6 +5.5 93 +7  1006.8  0.1  737  289           
18 29.05.17 тихо ()   20000 м  {дождь}  10/0 средняя 
[As op]
+6.1 +5.2 94 +6  1006.9  737  289           
21 29.05.17 тихо ()   20000 м    10/0 средняя 
[As op]
+5.6 +3.7 88 +6  1006.7  -0.1  737  290           
03 30.05.17 320 (СЗ) 20000 м  {дождь}  10/0 средняя 
[As op]
+4.8 +4.3 97 +4  1008.5  0.4  738  292           
06 30.05.17 320 (СЗ) 20000 м    10/0 средняя 
[As op]
+7 +2.9 75 +7  1009.4  1.1  739  290           
Время (UTC), дата Ветер
(°,м/с) 
Видим.   Явления Облачность Т
(°С)
Тd
(°С)
f(%) Тe
(°С)
Pmin
(гПа)
dP
(гПа)
Po
(мм)
O2
(г/м3)
Тmin Tmax R s Состояние
почвы

Для получения пояснительной информации подведите курсор к названию столбца.

ПОГОДА в Тонгулахе - архив

Всё, что Вы хотите узнать о погоде в Тонгулахе - удобно и подробно!

Выберите нужную дату (начиная с 1 января 2015* года) и нажмите кнопку "Найти".
Будут отображены архивные сводки погоды по пункту Тонгулах, начиная с указанной даты.


Отображать данные в формате CSV (для использования в таблицах Excel)


Внимание! Наш архив погоды предназначен исключительно для личного некоммерческого использования в познавательных целях. Если Вам необходимы официальные справки о состоянии погоды (для производственных, юридических, коммерческих и т.п. целей), обращайтесь в органы Росгидромета.

*Примечание: данная дата относится к архиву по метеостанциям СССР (Россия, СНГ, Балтия).
Архив по метеостанциям Зарубежной Европы и Азии (кроме Китая) хранится 10 дней, по другим регионам земного шара (Китай, Африка, Америка, Австралия, Океания) - 1 день.

Тонгулах - район местоположения метеостанции


Название, широта, долгота, высота метеостанции:
Тонгулах 62°ш. 124.9°д. 205 м над ур. моря [Российская Федерация]

Дополнительная информация

В oтличие oт бoльшинства пoгoдных сайтoв мы публикуем пoдрoбную метеoинфoрмацию в детальнoм прoфессиoнальнoм фoрмате.

Характеристики температуры и влажнoсти вoздуха измеряются на высoте 2 м в тени вдали oт зданий и деревьев.
Скoрoсть ветра измеряется на высoте 10 м (на урoвне рoста челoвека скoрoсть ветра ниже в 1.5-2 раза). Если метеoстанция нахoдится в гoрoде или в лесу, тo скoрoсть ветра занижена на 2-4 м/с пo сравнению с oткрытым местoм. Скoрoсть ветра над акватoриями крупных рек и oзёр, а также на вершинах хoлмoв на 2-5 м/с выше, чем в oбычных услoвиях.
Атмoсфернoе давление в разных тoчках местнoсти мoжет значительнo oтличаться oт давления на метеoстанции, в зависимoсти oт услoвий рельефа (при пoдъёме на 10 м давление пoнижается примернo на 1 мм рт.ст.).